CZ-6A DEB, 54446

Orbit data source: Space-Track

CZ-6A DEB, 54446 is space debris in SSO originally from a launch on Fri, 11 Nov 2022 UTC launched from the Taiyaun Space Center, China (TSC). Debris objects in space refer to the collection of defunct objects orbiting the Earth. Examples of debris include non-operational satellites, rocket bodies, and fragments generated from explosions, collisions, or faulty payload assembly.

Loading next visibility...
Identifier
54446, 2022-151FW
Orbit
SSO
Country
Flag of CNCN / PRC
Related business
Manufacturer
SAST
Mission
Spacecraft
Bus & Motor
Unknown
Mass
Unknown
Launch date (UTC)
2022-11-11 (4 years ago)
Launch vehicle
Unknown
Launch site
Taiyaun Space Center, China (TSC)
Object type
Payload
Rocket body
Debris
Shape & HBR
Unknown shape, 0.1 m
Radar Cross Section
Medium (>0.1 m² and <1 m²)

Expand to show TLE details & history
Last TLE update: 21 hours ago

TLE from 21 hours ago
0 CZ-6A DEB
1 54446U 22151FW  26235.22979815  .00001752  00000-0  14365-2 0  9991
2 54446  98.8323 159.8696 0209407 346.2065  13.3422 13.81052051189571
Epoch: 2026-08-23T05:30Z
TLE epoch observation values (Epoch: 2026-08-23T05:30:54.560Z)
Latitude
Longitude
105.61342°
Altitude
813.643 km
Speed
7.522 km/s
True Right ascension
10h 39m 28s
True Declination
0° 00' 00"
Sunlit
Object was in daylight at epoch
Visualization orbit readout
Latitude
Unknown
Longitude
Unknown
Altitude
Unknown
Speed
Unknown
Apparent Right ascension
Unknown
Apparent Declination
Unknown
Sunlit
N/A
Visualization observer readout
Local Sidereal Time
17:51:26
Azimuth
Unknown
Elevation
Unknown
Doppler factor
Unknown
Orbital elements
Apogee altitude
1,110.983 km
Perigee altitude
803.762 km
Semi-major axis
7,335.51 km
Eccentricity
0.02094
Inclination
98.8323°
RAAN
159.8696°
Arg. of periapsis
346.2065°
True anomaly
13.9104°
Mean anomaly
13.3422°
Eccentric anomaly
13.62483°
Mean motion
3.4546 °/min
Orbital period
104.21 mins
BSTAR
0.0014365
Loading maneuver chart data...
Computing Atmospheric mass density...

Documentation

Showing up to 5 results
|